Minot, ND

4:08 AM CST on December 16, 2017 (GMT -0600)
Minot International

Weather History for KMOT - October, 2011

Change the Weather History Date:

Friday, October 28, 2011

  Actual Average Record
Temperature  
Mean Temperature 40 °F 39 °F  
Max Temperature 50 °F 48 °F 80 °F (1937)
Min Temperature 30 °F 29 °F -8 °F (1919)
Degree Days  
Heating Degree Days 25 26  
Month to date heating degree days 433 557  
Since 1 July heating degree days 605 877  
Cooling Degree Days 0 0  
Month to date cooling degree days 9 0  
Year to date cooling degree days 508 444  
Moisture  
Dew Point 25 °F    
Average Humidity 57    
Maximum Humidity 78    
Minimum Humidity 36    
Precipitation  
Precipitation 0.00 in 0.03 in 0.68 in (1982)
Month to date precipitation 1.46 1.07  
Year to date precipitation 22.54 15.97  
Sea Level Pressure  
Sea Level Pressure 30.09 in    
Wind  
Wind Speed 10 mph (West)    
Max Wind Speed 21 mph    
Max Gust Speed 26 mph    
Visibility 10 miles    
Events      
T = Trace of Precipitation, MM = Missing Value Source: NWS Daily Summary

Daily Weather History Graph

Daily Weather History Graph

Search for Another Location

Airport or City:

Trip Planner

Search our weather history database for the weather conditions in past years. The results will help you decide how hot, cold, wet, or windy it might be!

Date:

Astronomy

Oct. 28, 2011 Rise Set
Actual Time 8:24 AM CDT 6:32 PM CDT
Civil Twilight 7:51 AM CDT 7:05 PM CDT
Nautical Twilight 7:15 AM CDT 7:41 PM CDT
Astronomical Twilight 6:39 AM CDT 8:17 PM CDT
Moon 10:56 AM CDT (10/28) 7:42 PM CDT (10/28)
Length of Visible Light 11h 13m
Length of Day
10h 08m
Waxing Crescent, 5% of the Moon is Illuminated
Oct 28
Waxing Crescent
Nov 2
First Quarter
Nov 10
Full
Nov 18
Last Quarter
Nov 25
New

Hourly Weather History & Observations

Time (CDT) Temp. Windchill Dew Point Humidity Pressure Visibility Wind Dir Wind Speed Gust Speed Precip Events Conditions
12:54 AM 37.0 °F 29.3 °F 24.1 °F 59% 30.05 in 10.0 mi WSW 11.5 mph - N/A   Clear
1:54 AM 36.0 °F 27.5 °F 24.1 °F 62% 30.06 in 10.0 mi West 12.7 mph - N/A   Clear
2:54 AM 35.1 °F 27.4 °F 23.0 °F 61% 30.08 in 10.0 mi WSW 10.4 mph - N/A   Clear
3:54 AM 34.0 °F 26.0 °F 23.0 °F 64% 30.09 in 10.0 mi West 10.4 mph - N/A   Clear
4:54 AM 33.8 °F 25.3 °F 24.8 °F 70% 30.04 in 10.0 mi West 11.5 mph - N/A   Clear
5:54 AM 33.1 °F 26.1 °F 23.0 °F 66% 30.10 in 10.0 mi WSW 8.1 mph - N/A   Clear
6:54 AM 30.9 °F 23.5 °F 23.0 °F 72% 30.12 in 10.0 mi WSW 8.1 mph - N/A   Clear
7:54 AM 32.0 °F 24.2 °F 23.0 °F 69% 30.12 in 10.0 mi WSW 9.2 mph - N/A   Clear
8:54 AM 33.1 °F 23.9 °F 24.1 °F 70% 30.14 in 10.0 mi West 12.7 mph - N/A   Clear
9:54 AM 36.0 °F 26.7 °F 24.1 °F 62% 30.15 in 10.0 mi West 15.0 mph - N/A   Clear
10:54 AM 39.0 °F 29.6 °F 25.0 °F 57% 30.15 in 10.0 mi West 18.4 mph - N/A   Clear
11:54 AM 43.0 °F 35.1 °F 26.1 °F 51% 30.15 in 10.0 mi West 17.3 mph 23.0 mph N/A   Clear
12:54 PM 46.9 °F - 27.0 °F 46% 30.14 in 10.0 mi West 16.1 mph - N/A   Clear
1:54 PM 48.9 °F - 25.0 °F 39% 30.12 in 10.0 mi WNW 18.4 mph - N/A   Clear
2:54 PM 50.0 °F - 24.1 °F 36% 30.11 in 10.0 mi NW 17.3 mph 23.0 mph N/A   Clear
3:54 PM 50.0 °F - 25.0 °F 38% 30.10 in 10.0 mi WNW 15.0 mph - N/A   Clear
4:54 PM 48.0 °F - 25.0 °F 41% 30.10 in 10.0 mi WNW 11.5 mph - N/A   Clear
5:54 PM 43.0 °F 39.5 °F 27.0 °F 53% 30.10 in 10.0 mi WNW 5.8 mph - N/A   Clear
6:54 PM 37.9 °F 34.4 °F 27.0 °F 65% 30.10 in 10.0 mi WSW 4.6 mph - N/A   Clear
7:54 PM 37.4 °F 32.1 °F 26.6 °F 65% 30.04 in 10.0 mi SW 6.9 mph - N/A   Clear
8:54 PM 35.1 °F - 28.0 °F 76% 30.08 in 10.0 mi Calm Calm - N/A   Clear
9:54 PM 35.1 °F - 27.0 °F 72% 30.05 in 10.0 mi Calm Calm - N/A   Clear
10:54 PM 32.0 °F 27.5 °F 27.0 °F 82% 30.04 in 10.0 mi SSE 4.6 mph - N/A   Clear
11:54 PM 32.0 °F 27.5 °F 27.0 °F 82% 30.01 in 10.0 mi SSE 4.6 mph - N/A   Clear